TimeMDT,TemperatureF,Dew PointF,Humidity,Sea Level PressureIn,VisibilityMPH,Wind Direction,Wind SpeedMPH,Gust SpeedMPH,PrecipitationIn,Events,Conditions,WindDirDegrees,DateUTC
12:53 AM,69.1,48.9,49,29.89,10.0,NNE,3.5,-,N/A,,Partly Cloudy,20,2013-08-25 06:53:00
1:53 AM,64.9,48.9,56,29.91,10.0,Calm,Calm,-,N/A,,Clear,0,2013-08-25 07:53:00
2:53 AM,62.1,48.9,62,29.92,10.0,SSW,3.5,-,N/A,,Clear,210,2013-08-25 08:53:00
3:53 AM,59.0,48.0,67,29.94,10.0,South,5.8,-,N/A,,Clear,170,2013-08-25 09:53:00
4:53 AM,59.0,45.0,60,29.95,10.0,South,8.1,-,N/A,,Clear,180,2013-08-25 10:53:00
5:53 AM,57.0,44.1,62,29.96,10.0,Calm,Calm,-,N/A,,Clear,0,2013-08-25 11:53:00
6:53 AM,57.9,45.0,62,29.99,10.0,Calm,Calm,-,N/A,,Clear,0,2013-08-25 12:53:00
7:53 AM,64.0,44.1,48,29.99,10.0,Calm,Calm,-,N/A,,Clear,0,2013-08-25 13:53:00
8:53 AM,63.0,48.0,58,30.01,10.0,WNW,3.5,-,N/A,,Clear,290,2013-08-25 14:53:00
9:53 AM,64.9,51.1,61,30.01,10.0,WSW,3.5,-,N/A,,Clear,250,2013-08-25 15:53:00
10:53 AM,75.0,48.0,38,29.98,10.0,East,4.6,-,N/A,,Clear,90,2013-08-25 16:53:00
11:53 AM,82.0,46.9,29,29.94,10.0,North,8.1,-,N/A,,Clear,350,2013-08-25 17:53:00
12:53 PM,86.0,44.1,23,29.91,10.0,Variable,5.8,-,N/A,,Clear,0,2013-08-25 18:53:00
1:53 PM,88.0,43.0,21,29.90,10.0,NNE,6.9,-,N/A,,Clear,30,2013-08-25 19:53:00
2:53 PM,90.0,42.1,19,29.88,10.0,ENE,5.8,-,N/A,,Clear,60,2013-08-25 20:53:00
3:53 PM,90.0,42.1,19,29.87,10.0,North,5.8,-,N/A,,Clear,360,2013-08-25 21:53:00
4:53 PM,89.1,44.1,21,29.86,10.0,NNE,4.6,-,N/A,,Clear,20,2013-08-25 22:53:00
5:53 PM,88.0,46.0,23,29.86,10.0,Variable,3.5,-,N/A,,Clear,0,2013-08-25 23:53:00
6:53 PM,86.0,45.0,24,29.85,10.0,NNE,3.5,-,N/A,,Clear,30,2013-08-26 00:53:00
7:53 PM,80.1,48.9,34,29.84,10.0,ENE,3.5,-,N/A,,Clear,70,2013-08-26 01:53:00
8:53 PM,82.9,39.0,21,29.85,10.0,SSE,10.4,-,N/A,,Clear,160,2013-08-26 02:53:00
10:53 PM,80.1,44.1,28,29.84,10.0,South,15.0,-,N/A,,Clear,180,2013-08-26 04:53:00
11:53 PM,79.0,44.1,29,29.83,10.0,SSE,15.0,-,N/A,,Clear,160,2013-08-26 05:53:00